DW9954 Weather Reports


Display with metric or nautical units.
time (UTC)temp
F
wind
direction
speed
MPH
gust
MPH
rain 1hr
in
rain 24hr
in
rain mn
in
humidity
%
barometer
mb
20260502231522 0 30 0.0 3.0 0.00 0.00 0.00 1013.5
20260502230018 0 34 0.0 1.0 0.00 0.00 0.00 1013.4
20260502224513 0 36 0.0 3.0 0.00 0.00 0.00 1013.5
20260502223010 0 24 1.0 4.0 0.00 0.00 0.00 1013.5
20260502221509 0 89 0.0 3.0 0.00 0.00 0.00 1013.7
20260502220004 0 128 0.0 3.0 0.00 0.00 0.00 1014.0
20260502214559 0 27 0.0 3.0 0.00 0.00 0.00 1014.3
20260502213053 0 40 0.0 4.0 0.00 0.00 0.00 1013.9
20260502211552 0 24 0.0 4.0 0.00 0.00 0.00 1014.0
20260502210050 0 33 0.0 4.0 0.00 0.00 0.00 1014.2
20260502204551 0 10 1.0 6.0 0.00 0.00 0.00 1014.1
20260502203045 0 5 1.0 5.0 0.00 0.00 0.00 1014.4
20260502201535 0 20 0.0 4.0 0.00 0.00 0.00 1014.3
20260502200031 0 11 2.0 7.0 0.00 0.00 0.00 1014.6
20260502194532 0 5 1.0 4.0 0.00 0.00 0.00 1014.6
20260502193023 0 11 0.0 3.0 0.00 0.00 0.00 1014.5
20260502191519 0 11 1.0 4.0 0.00 0.00 0.00 1014.5
20260502190015 0 5 0.0 3.0 0.00 0.00 0.00 1014.4
20260502184510 0 5 0.0 6.0 0.00 0.00 0.00 1014.4
20260502183006 0 12 1.0 6.0 0.00 0.00 0.00 1014.4
20260502181511 0 5 1.0 4.0 0.00 0.00 0.00 1014.4
20260502163046 0 34 0.0 6.0 0.00 0.00 0.00 1014.9
20260502161533 0 24 0.0 5.0 0.00 0.00 0.00 1015.0
20260502151528 0 330 0.0 7.0 0.00 0.00 0.00 1015.5
20260502123038 0 53 0.0 4.0 0.00 0.00 0.00 1017.0
20260502121528 0 5 1.0 7.0 0.00 0.00 0.00 1017.1
20260502114520 0 17 2.0 6.0 0.00 0.00 0.00 1017.2
20260502113016 0 5 1.0 8.0 0.00 0.00 0.00 1017.3
20260502111513 0 285 1.0 9.0 0.00 0.00 0.00 1017.3
20260502110017 0 173 0.0 4.0 0.00 0.00 0.00 1017.4
20260502104504 0 294 1.0 6.0 0.00 0.00 0.00 1017.4
20260502103113 0 172 0.0 5.0 0.00 0.00 0.00 1017.5
20260502101612 0 205 1.0 7.0 0.00 0.00 0.00 1017.6
20260502100123 0 323 0.0 6.0 0.00 0.00 0.00 1017.7
20260502071511 0 145 2.0 8.0 0.00 0.00 0.00 1018.3
20260502070006 0 161 1.0 8.0 0.00 0.00 0.00 1018.5
20260502064501 0 207 2.0 8.0 0.00 0.00 0.00 1018.2
20260502063107 0 105 0.0 7.0 0.00 0.00 0.00 1018.2
20260502061612 0 157 2.0 6.0 0.00 0.00 0.00 1018.1
20260502060051 0 128 2.0 7.0 0.00 0.00 0.00 1018.1
20260502054546 0 130 0.0 6.0 0.00 0.00 0.00 1018.1
20260502053042 0 128 0.0 3.0 0.00 0.00 0.00 1018.2
20260502051539 0 144 0.0 4.0 0.00 0.00 0.00 1018.2
20260502050034 0 130 0.0 4.0 0.00 0.00 0.00 1018.3
20260502044531 0 128 0.0 4.0 0.00 0.00 0.00 1018.2
20260502043026 0 132 0.0 3.0 0.00 0.00 0.00 1018.2
20260502041529 0 127 0.0 3.0 0.00 0.00 0.00 1018.3
20260502040019 0 121 0.0 3.0 0.00 0.00 0.00 1018.4
20260502034515 0 130 0.0 3.0 0.00 0.00 0.00 1018.6
20260502033022 0 127 0.0 3.0 0.00 0.00 0.00 1018.7
20260502031507 0 130 0.0 2.0 0.00 0.00 0.00 1018.7
20260502030003 0 129 0.0 1.0 0.00 0.00 0.00 1018.8
20260502024606 0 129 0.0 0.0 0.00 0.00 0.00 1018.8
20260502023055 0 129 0.0 2.0 0.00 0.00 0.00 1018.9
20260502021553 0 128 0.0 1.0 0.00 0.00 0.00 1019.1
20260502020047 0 129 0.0 2.0 0.00 0.00 0.00 1019.1
20260502014543 0 129 0.0 2.0 0.00 0.00 0.00 1019.2
20260502013040 0 129 0.0 2.0 0.00 0.00 0.00 1019.3
20260502011539 0 129 0.0 1.0 0.00 0.00 0.00 1019.5
20260502010031 0 129 0.0 0.0 0.00 0.00 0.00 1019.6
20260502004527 0 129 0.0 1.0 0.00 0.00 0.00 1019.8
20260502003025 0 130 0.0 1.0 0.00 0.00 0.00 1019.9
20260502001522 0 130 0.0 2.0 0.00 0.00 0.00 1020.1
20260502000017 0 130 0.0 1.0 0.00 0.00 0.00 1020.2
20260501234515 0 130 0.0 2.0 0.00 0.00 0.00 1020.2
20260501233008 0 130 0.0 1.0 0.00 0.00 0.00 1020.3